STARLINK-37596, 69032

Orbit data source: Space-Track

STARLINK-37596, 69032 is a payload satellite owned by SpaceX/Seattle (US) in SSO that was launched on Wed, 06 May 2026 UTC via an FALCON 9 launch vehicle from the Air Force Western Test Range (AFWTR). Payload-class satellites include a variety of spacecraft equipped with specific instruments for various scientific and technological missions. These include communications satellites like Starlink; space stations such as the ISS; scientific satellites like the Hubble; Earth observation satellites from companies like Planet Labs, Umbra, and HawkEye 360; GPS; miniature CubeSats for education and research; and military/defense satellites.

Loading next visibility...
Identifier
69032, 2026-101H
Orbit
SSO
Country
Flag of USUS
Related business
Manufacturer
SpaceX/Seattle
Mission
Operational Commercial Communications
Bus & Motor
STARLINK V2MO, Unknown motor
Mass
575 kg wet, ~530 kg dry
Launch date (UTC)
2026-05-06 (3 months ago)
Launch vehicle
FALCON 9
Launch site
Air Force Western Test Range (AFWTR)
Object type
Payload
Rocket body
Debris
Shape & HBR
Box + 2 Pan, 17.7 m
Radar Cross Section
36.964 m², Large (>1 m²)

Expand to show TLE details & history
Last TLE update: 15 hours ago

TLE from 15 hours ago
0 STARLINK-37596
1 69032U 26101H   26206.53115948  .00018821  00000-0  58376-3 0  9994
2 69032  97.2856  60.9009 0002922  96.3310 263.8265 15.33447633 12453
Epoch: 2026-07-25T12:44Z
TLE epoch observation values (Epoch: 2026-07-25T12:44:52.179Z)
Latitude
-0.00006°
Longitude
-73.55861°
Altitude
468.863 km
Speed
7.632 km/s
True Right ascension
04h 03m 36s
True Declination
0° 00' 00"
Sunlit
Object was in daylight at epoch
Visualization orbit readout
Latitude
Unknown
Longitude
Unknown
Altitude
Unknown
Speed
Unknown
Apparent Right ascension
Unknown
Apparent Declination
Unknown
Sunlit
N/A
Visualization observer readout
Local Sidereal Time
17:02:27
Azimuth
Unknown
Elevation
Unknown
Doppler factor
Unknown
Orbital elements
Apogee altitude
464.477 km
Perigee altitude
460.479 km
Semi-major axis
6,840.615 km
Eccentricity
0.00029
Inclination
97.2856°
RAAN
60.9009°
Arg. of periapsis
96.331°
True anomaly
263.79321°
Mean anomaly
263.8265°
Eccentric anomaly
263.80986°
Mean motion
3.83619 °/min
Orbital period
93.84 mins
BSTAR
0.00058376
Loading maneuver chart data...
Computing Atmospheric mass density...
Loading historical data...
Loading historical data...
Loading historical data...
Loading historical data...
Loading historical data...
Loading historical data...
Loading historical data...

Documentation

Showing up to 5 results
|